CW2401 Weather Reports


Display with metric or nautical units.
time (UTC)temp
F
wind
direction
speed
MPH
gust
MPH
rain 1hr
in
rain 24hr
in
rain mn
in
humidity
%
barometer
mb
20260507051535 66 45 0.0 2.0 0.07 0.12 0.09 94 1012.5
20260507051336 66 44 0.0 3.0 0.07 0.12 0.09 94 1012.6
20260507051136 66 44 1.0 3.0 0.07 0.12 0.09 94 1012.6
20260507050936 66 44 1.0 3.0 0.07 0.12 0.09 94 1012.7
20260507050735 66 44 1.0 4.0 0.08 0.12 0.09 93 1013.1
20260507050536 66 44 1.0 4.0 0.08 0.12 0.09 93 1013.4
20260507050336 66 37 1.0 4.0 0.09 0.12 0.09 93 1013.5
20260507050136 66 309 0.0 4.0 0.09 0.12 0.09 93 1013.4
20260507045935 66 306 0.0 4.0 0.09 0.12 0.09 93 1012.7
20260507045735 66 51 0.0 0.0 0.09 0.12 0.09 93 1011.7
20260507045537 66 52 0.0 0.0 0.09 0.12 0.09 93 1012.0
20260507045336 66 5 0.0 0.0 0.09 0.12 0.09 93 1012.6
20260507045136 66 355 0.0 0.0 0.08 0.11 0.08 93 1013.0
20260507044934 66 355 0.0 0.0 0.08 0.11 0.08 93 1012.9
20260507044734 66 355 0.0 0.0 0.08 0.11 0.08 93 1012.7
20260507044532 66 355 0.0 0.0 0.08 0.11 0.08 93 1012.6
20260507044331 66 355 0.0 0.0 0.08 0.10 0.07 93 1012.5
20260507044131 66 355 0.0 1.0 0.08 0.10 0.07 93 1012.6
20260507043931 66 351 1.0 3.0 0.07 0.09 0.06 93 1012.7
20260507043730 66 351 1.0 4.0 0.07 0.09 0.06 93 1012.8
20260507043530 66 351 1.0 4.0 0.07 0.09 0.06 93 1012.8
20260507043332 66 348 1.0 5.0 0.07 0.09 0.06 93 1013.2
20260507042930 66 348 1.0 5.0 0.07 0.08 0.06 93 1012.6
20260507042730 67 325 1.0 5.0 0.07 0.08 0.05 92 1012.1
20260507042129 67 85 1.0 4.0 0.07 0.08 0.05 92 1013.0
20260507041926 67 70 1.0 4.0 0.06 0.07 0.05 92 1013.4
20260507041121 67 153 1.0 4.0 0.04 0.05 0.02 92 1014.2
20260507040721 67 333 1.0 4.0 0.03 0.04 0.01 93 1014.3
20260507040522 67 346 1.0 4.0 0.04 0.04 0.01 93 1014.4
20260507040322 67 59 1.0 4.0 0.03 0.03 0.01 93 1014.4
20260507035718 67 0 1.0 4.0 0.03 0.03 0.03 93 1014.4
20260507035519 67 26 0.0 3.0 0.03 0.03 0.03 92 1014.4
20260507035319 67 96 0.0 3.0 0.03 0.03 0.03 92 1014.2
20260507035116 67 109 0.0 3.0 0.03 0.03 0.03 92 1014.1
20260507034916 67 111 0.0 3.0 0.03 0.03 0.03 92 1014.0
20260507034516 67 111 0.0 4.0 0.03 0.03 0.03 92 1014.0
20260507034315 67 225 0.0 4.0 0.02 0.02 0.03 92 1013.9
20260507034117 67 226 0.0 4.0 0.02 0.02 0.02 92 1013.9
20260507033917 67 231 0.0 4.0 0.02 0.02 0.02 92 1013.8
20260507033714 67 106 0.0 0.0 0.02 0.02 0.02 92 1013.7
20260507033515 67 108 0.0 0.0 0.02 0.02 0.02 92 1013.6
20260507032915 67 113 0.0 0.0 0.01 0.01 0.01 92 1013.2
20260507032714 67 113 0.0 0.0 0.01 0.01 0.01 92 1013.2
20260507032514 67 113 0.0 1.0 0.01 0.01 0.01 92 1013.1
20260507032315 67 113 0.0 1.0 0.01 0.01 0.01 92 1012.9
20260507032114 67 113 0.0 1.0 0.01 0.01 0.01 92 1012.8
20260507031714 67 113 0.0 2.0 0.01 0.01 0.01 92 1012.9
20260507031315 67 113 0.0 2.0 0.01 0.01 0.01 92 1013.2
20260507030914 67 121 0.0 1.0 0.01 0.01 0.01 92 1013.3
20260507030714 67 121 0.0 1.0 0.01 0.01 0.01 92 1013.4
20260507030514 67 121 0.0 1.0 0.00 0.00 0.00 92 1013.3
20260507025713 67 121 0.0 3.0 0.00 0.00 0.00 92 1013.4
20260507025513 67 121 0.0 3.0 0.00 0.00 0.00 91 1013.3
20260507025315 67 121 0.0 3.0 0.00 0.00 0.00 91 1013.3
20260507025117 67 138 0.0 0.0 0.00 0.00 0.00 91 1013.3
20260507024913 67 138 0.0 0.0 0.00 0.00 0.00 91 1013.3
20260507024714 67 146 0.0 0.0 0.00 0.00 0.00 91 1013.4
20260507024113 67 148 0.0 0.0 0.00 0.00 0.00 91 1013.0
20260507023714 67 147 0.0 0.0 0.00 0.00 0.00 90 1012.9
20260507023115 67 148 0.0 0.0 0.00 0.00 0.00 90 1012.8
20260507022714 68 147 0.0 0.0 0.00 0.00 0.00 90 1012.7
20260507022514 68 147 0.0 0.0 0.00 0.00 0.00 90 1012.6
20260507022314 68 147 0.0 0.0 0.00 0.00 0.00 90 1012.6
20260507022114 68 147 0.0 0.0 0.00 0.00 0.00 90 1012.5
20260507021914 68 148 0.0 0.0 0.00 0.00 0.00 90 1012.5
20260507021715 68 148 0.0 0.0 0.00 0.00 0.00 90 1012.6
20260507021515 68 147 0.0 0.0 0.00 0.00 0.00 90 1012.5
20260507021314 68 147 0.0 0.0 0.00 0.00 0.00 89 1012.5
20260507020914 68 147 0.0 0.0 0.00 0.00 0.00 89 1012.6
20260507020715 68 148 0.0 0.0 0.00 0.00 0.00 89 1012.5
20260507020514 68 148 0.0 0.0 0.00 0.00 0.00 89 1012.4
20260507020114 68 147 0.0 0.0 0.00 0.00 0.00 89 1012.4
20260507015513 68 147 0.0 0.0 0.00 0.00 0.00 89 1012.4
20260507015316 68 148 0.0 0.0 0.00 0.00 0.00 89 1012.4
20260507015113 68 147 0.0 0.0 0.00 0.00 0.00 89 1012.4
20260507014913 68 147 0.0 0.0 0.00 0.00 0.00 89 1012.4
20260507014713 68 147 0.0 0.0 0.00 0.00 0.00 89 1012.5
20260507014513 68 147 0.0 0.0 0.00 0.00 0.00 89 1012.6
20260507014313 68 147 0.0 0.0 0.00 0.00 0.00 89 1012.6
20260507014114 68 148 0.0 0.0 0.00 0.00 0.00 89 1012.5
20260507013915 68 148 0.0 0.0 0.00 0.00 0.00 89 1012.6
20260507013714 68 148 0.0 0.0 0.00 0.00 0.00 89 1012.7
20260507013513 68 147 0.0 0.0 0.00 0.00 0.00 89 1012.7
20260507013315 68 147 0.0 0.0 0.00 0.00 0.00 89 1012.8
20260507013109 68 148 0.0 0.0 0.00 0.00 0.00 89 1012.8
20260507012908 68 147 0.0 0.0 0.00 0.00 0.00 89 1012.9
20260507012708 68 148 0.0 0.0 0.00 0.00 0.00 89 1012.8
20260507012504 69 148 0.0 0.0 0.00 0.00 0.00 89 1012.8
20260507012306 69 147 0.0 0.0 0.00 0.00 0.00 88 1012.7
20260507012059 69 148 0.0 0.0 0.00 0.00 0.00 88 1012.6
20260507011900 69 147 0.0 0.0 0.00 0.00 0.00 88 1012.5
20260507011701 69 147 0.0 0.0 0.00 0.00 0.00 88 1012.4
20260507011459 69 148 0.0 0.0 0.00 0.00 0.00 88 1012.4
20260507010854 69 148 0.0 0.0 0.00 0.00 0.00 88 1012.6
20260507010655 69 148 0.0 0.0 0.00 0.00 0.00 88 1012.7
20260507010250 69 147 0.0 0.0 0.00 0.00 0.00 88 1012.6
20260507010050 69 148 0.0 0.0 0.00 0.00 0.00 88 1012.5
20260507005650 69 148 0.0 0.0 0.00 0.00 0.00 88 1012.5
20260507005450 69 148 0.0 0.0 0.00 0.00 0.00 87 1012.5
20260507004850 69 147 0.0 0.0 0.00 0.00 0.00 87 1012.6
20260507004650 69 148 0.0 0.0 0.00 0.00 0.00 87 1012.5
20260507004446 69 148 0.0 0.0 0.00 0.00 0.00 87 1012.6
20260507004246 69 148 0.0 0.0 0.00 0.00 0.00 87 1012.6
20260507004046 69 147 0.0 0.0 0.00 0.00 0.00 87 1012.7
20260507003845 69 147 0.0 0.0 0.00 0.00 0.00 87 1012.7
20260507003645 69 148 0.0 0.0 0.00 0.00 0.00 87 1012.7
20260507003445 69 148 0.0 0.0 0.00 0.00 0.00 87 1012.6
20260507003045 70 148 0.0 0.0 0.00 0.00 0.00 87 1012.4
20260507002843 70 147 0.0 0.0 0.00 0.00 0.00 87 1012.3
20260507002643 70 148 0.0 0.0 0.00 0.00 0.00 86 1012.3
20260507002442 70 148 0.0 0.0 0.00 0.00 0.00 86 1012.4
20260507002241 70 148 0.0 0.0 0.00 0.00 0.00 86 1012.6
20260507002039 70 148 0.0 0.0 0.00 0.00 0.00 86 1012.7
20260507001442 70 148 0.0 0.0 0.00 0.00 0.00 86 1012.7
20260507001242 70 148 0.0 0.0 0.00 0.00 0.00 86 1012.7
20260507001039 70 148 0.0 0.0 0.00 0.00 0.00 86 1012.6
20260507000839 71 148 0.0 0.0 0.00 0.00 0.00 86 1012.6
20260507000640 71 148 0.0 0.0 0.00 0.00 0.00 86 1012.5
20260507000442 71 147 0.0 0.0 0.00 0.00 0.00 86 1012.5
20260507000239 71 147 0.0 0.0 0.00 0.00 0.00 86 1012.5
20260506235834 71 147 0.0 0.0 0.00 0.00 0.00 85 1012.5
20260506235634 71 148 0.0 0.0 0.00 0.00 0.00 85 1012.5
20260506235434 71 147 0.0 0.0 0.00 0.00 0.00 85 1012.5
20260506235233 71 147 0.0 0.0 0.00 0.00 0.00 85 1012.4
20260506235035 71 147 0.0 0.0 0.00 0.00 0.00 84 1012.5
20260506234833 71 147 0.0 0.0 0.00 0.00 0.00 84 1012.4
20260506234629 71 148 0.0 0.0 0.00 0.00 0.00 85 1012.4
20260506234233 72 147 0.0 0.0 0.00 0.00 0.00 84 1012.5
20260506233631 72 148 0.0 0.0 0.00 0.00 0.00 84 1012.5
20260506233428 72 148 0.0 0.0 0.00 0.00 0.00 83 1012.6
20260506233226 72 148 0.0 0.0 0.00 0.00 0.00 83 1012.5
20260506233027 72 148 0.0 0.0 0.00 0.00 0.00 83 1012.5
20260506232827 72 147 0.0 0.0 0.00 0.00 0.00 83 1012.6
20260506232625 72 147 0.0 0.0 0.00 0.00 0.00 83 1012.6
20260506232426 72 147 0.0 0.0 0.00 0.00 0.00 83 1012.7
20260506232222 73 147 0.0 0.0 0.00 0.00 0.00 83 1012.6
20260506232023 73 147 0.0 0.0 0.00 0.00 0.00 83 1012.6
20260506231822 73 147 0.0 0.0 0.00 0.00 0.00 82 1012.7
20260506231621 73 148 0.0 0.0 0.00 0.00 0.00 82 1012.6
20260506231421 73 147 0.0 0.0 0.00 0.00 0.00 82 1012.5
20260506231017 73 147 0.0 0.0 0.00 0.00 0.00 82 1012.5
20260506230615 73 148 0.0 3.0 0.00 0.00 0.00 82 1012.6
20260506230414 73 147 0.0 3.0 0.00 0.00 0.00 82 1012.7
20260506230011 73 147 0.0 3.0 0.00 0.00 0.00 82 1012.7
20260506225813 73 147 0.0 3.0 0.00 0.00 0.00 81 1012.6
20260506225409 73 140 0.0 2.0 0.00 0.00 0.00 81 1012.7
20260506225207 73 140 0.0 2.0 0.00 0.00 0.00 81 1012.8
20260506225007 73 96 0.0 2.0 0.00 0.00 0.00 81 1012.8
20260506224605 73 96 0.0 2.0 0.00 0.00 0.00 81 1012.8
20260506224403 73 96 1.0 2.0 0.00 0.00 0.00 81 1012.8
20260506224202 73 96 1.0 3.0 0.00 0.00 0.00 81 1012.8
20260506224000 73 96 1.0 3.0 0.00 0.00 0.00 81 1012.7
20260506223800 73 96 1.0 3.0 0.00 0.00 0.00 80 1012.8
20260506223600 73 93 0.0 3.0 0.00 0.00 0.00 81 1012.8
20260506223400 73 95 0.0 3.0 0.00 0.00 0.00 81 1012.8
20260506222958 73 155 0.0 2.0 0.00 0.00 0.00 80 1012.7
20260506222755 73 155 1.0 3.0 0.00 0.00 0.00 80 1012.8
20260506222556 74 155 1.0 3.0 0.00 0.00 0.00 81 1012.7
20260506222353 74 155 1.0 3.0 0.00 0.00 0.00 81 1012.7
20260506222153 74 155 1.0 3.0 0.00 0.00 0.00 80 1012.6
20260506221751 74 19 1.0 3.0 0.00 0.00 0.00 80 1012.5
20260506221550 74 78 1.0 3.0 0.00 0.00 0.00 80 1012.5
20260506221352 74 77 1.0 3.0 0.00 0.00 0.00 80 1012.4
20260506221150 74 77 1.0 4.0 0.00 0.00 0.00 80 1012.3
20260506220950 74 283 1.0 4.0 0.00 0.00 0.00 80 1012.3
20260506220747 73 294 1.0 4.0 0.00 0.00 0.00 80 1012.3
20260506220546 73 318 1.0 4.0 0.00 0.00 0.00 81 1012.3
20260506220345 73 268 1.0 4.0 0.00 0.00 0.00 80 1012.4
20260506220143 73 130 1.0 4.0 0.00 0.00 0.00 81 1012.4
20260506215943 73 129 1.0 4.0 0.00 0.00 0.00 81 1012.3
20260506215741 73 247 1.0 4.0 0.00 0.00 0.00 81 1012.3
20260506215143 73 96 1.0 4.0 0.00 0.00 0.00 81 1012.3
20260506214944 73 95 1.0 4.0 0.00 0.00 0.00 81 1012.4
20260506214742 73 143 1.0 4.0 0.00 0.00 0.00 81 1012.4
20260506214342 73 64 0.0 3.0 0.00 0.00 0.00 82 1012.3
20260506214139 73 248 1.0 9.0 0.00 0.00 0.00 82 1012.3
20260506213938 73 136 1.0 9.0 0.00 0.00 0.00 81 1012.3
20260506213737 73 136 1.0 9.0 0.00 0.00 0.00 81 1012.4
20260506213537 73 134 1.0 9.0 0.00 0.00 0.00 81 1012.4
20260506213137 73 61 1.0 4.0 0.00 0.00 0.00 82 1012.5
20260506212937 73 75 1.0 4.0 0.00 0.00 0.00 82 1012.5
20260506212738 73 50 1.0 4.0 0.00 0.00 0.00 82 1012.5
20260506212535 73 49 1.0 5.0 0.00 0.00 0.00 82 1012.4
20260506212333 73 94 1.0 5.0 0.00 0.00 0.00 82 1012.5
20260506211934 72 101 1.0 5.0 0.00 0.00 0.00 82 1012.6
20260506211734 72 101 1.0 5.0 0.00 0.00 0.00 82 1012.6
20260506211530 72 240 1.0 5.0 0.00 0.00 0.00 82 1012.6
20260506211330 72 242 1.0 5.0 0.00 0.00 0.00 83 1012.6
20260506211128 72 244 1.0 5.0 0.00 0.00 0.00 82 1012.6
20260506210929 72 232 1.0 5.0 0.00 0.00 0.00 83 1012.6
20260506210727 72 128 1.0 5.0 0.00 0.00 0.00 83 1012.6
20260506210526 72 61 1.0 4.0 0.00 0.00 0.00 83 1012.5
20260506205927 72 145 2.0 5.0 0.00 0.00 0.00 83 1012.6
20260506205725 72 333 2.0 5.0 0.00 0.00 0.00 83 1012.6
20260506205526 71 113 2.0 5.0 0.00 0.00 0.00 83 1012.5
20260506204926 71 74 2.0 6.0 0.00 0.00 0.00 83 1012.6
20260506204725 71 69 2.0 6.0 0.00 0.00 0.00 84 1012.4
20260506204322 71 61 2.0 5.0 0.00 0.00 0.00 84 1012.6
20260506204123 71 299 2.0 5.0 0.00 0.00 0.00 84 1012.5
20260506203924 71 132 2.0 5.0 0.00 0.00 0.00 84 1012.5
20260506203724 71 169 2.0 5.0 0.00 0.00 0.00 84 1012.4
20260506203524 71 55 2.0 5.0 0.00 0.00 0.00 84 1012.4
20260506203323 71 64 2.0 7.0 0.00 0.00 0.00 84 1012.4
20260506203123 71 63 2.0 7.0 0.00 0.00 0.00 85 1012.5
20260506202923 71 350 1.0 7.0 0.00 0.00 0.00 85 1012.5
20260506202723 71 0 1.0 7.0 0.00 0.00 0.00 85 1012.6
20260506202324 71 140 1.0 5.0 0.00 0.00 0.00 85 1012.5
20260506201922 70 112 1.0 5.0 0.00 0.00 0.00 86 1012.4
20260506201523 70 169 1.0 5.0 0.00 0.00 0.00 86 1012.4
20260506201321 70 101 1.0 5.0 0.00 0.00 0.00 86 1012.5
20260506201122 70 100 1.0 5.0 0.00 0.00 0.00 86 1012.5
20260506200920 70 56 1.0 3.0 0.00 0.00 0.00 86 1012.6
20260506200720 70 54 1.0 4.0 0.00 0.00 0.00 86 1012.6
20260506200319 70 190 1.0 4.0 0.00 0.00 0.00 86 1012.6
20260506200121 70 196 1.0 4.0 0.00 0.00 0.00 86 1012.5
20260506195918 70 72 1.0 4.0 0.00 0.00 0.00 86 1012.6
20260506195717 70 244 1.0 4.0 0.00 0.00 0.00 86 1012.7
20260506195518 70 244 1.0 4.0 0.00 0.00 0.00 86 1012.6
20260506195317 70 284 1.0 4.0 0.00 0.00 0.00 87 1012.7
20260506195116 70 197 1.0 4.0 0.00 0.00 0.00 87 1012.8
20260506194918 70 184 1.0 4.0 0.00 0.00 0.00 87 1012.8
20260506194716 70 184 1.0 6.0 0.00 0.00 0.00 86 1012.9
20260506194516 70 190 2.0 6.0 0.00 0.00 0.00 86 1012.9
20260506194315 70 124 1.0 6.0 0.00 0.00 0.00 87 1013.0
20260506194115 70 107 1.0 6.0 0.00 0.00 0.00 87 1013.0
20260506193914 69 262 1.0 6.0 0.00 0.00 0.00 87 1013.1
20260506193711 69 49 1.0 5.0 0.00 0.00 0.00 87 1013.1
20260506193513 69 95 1.0 2.0 0.00 0.00 0.00 87 1012.9
20260506193309 69 96 1.0 3.0 0.00 0.00 0.00 87 1012.8
20260506193107 69 96 1.0 3.0 0.00 0.00 0.00 87 1013.0
20260506192908 69 71 1.0 3.0 0.00 0.00 0.00 87 1013.0
20260506192707 69 71 1.0 3.0 0.00 0.00 0.00 87 1013.0
20260506192508 69 71 1.0 3.0 0.00 0.00 0.00 87 1013.0
20260506192107 69 123 0.0 3.0 0.00 0.00 0.00 87 1013.1
20260506191908 69 111 0.0 2.0 0.00 0.00 0.00 86 1013.2
20260506191707 69 111 0.0 0.0 0.00 0.00 0.00 86 1012.9
20260506191305 69 111 0.0 3.0 0.00 0.00 0.00 86 1012.9
20260506191102 69 111 0.0 3.0 0.00 0.00 0.00 86 1012.9
20260506190701 70 111 1.0 3.0 0.00 0.00 0.00 85 1013.0
20260506190458 70 111 1.0 3.0 0.00 0.00 0.00 85 1013.2
20260506190255 70 111 1.0 2.0 0.00 0.00 0.00 85 1013.4
20260506190054 70 111 1.0 2.0 0.00 0.00 0.00 84 1013.6
20260506185854 70 194 1.0 3.0 0.00 0.00 0.00 84 1013.7
20260506185653 70 180 1.0 3.0 0.00 0.00 0.00 83 1013.8
20260506185454 71 179 1.0 3.0 0.00 0.00 0.00 83 1013.9
20260506185252 71 181 1.0 3.0 0.00 0.00 0.00 83 1014.1
20260506184849 71 63 1.0 3.0 0.00 0.00 0.00 82 1014.4
20260506184447 71 61 2.0 6.0 0.00 0.00 0.00 81 1014.6
20260506184247 71 98 2.0 6.0 0.00 0.00 0.00 80 1014.8
20260506184047 71 62 2.0 6.0 0.00 0.00 0.00 80 1014.9
20260506183846 71 117 2.0 6.0 0.00 0.00 0.00 79 1014.8
20260506183645 71 154 2.0 7.0 0.00 0.00 0.00 79 1014.8
20260506183443 71 16 2.0 7.0 0.00 0.00 0.00 79 1014.8
20260506183242 71 208 2.0 7.0 0.00 0.00 0.00 78 1014.8
20260506183040 71 116 1.0 7.0 0.00 0.00 0.00 79 1014.8
20260506182841 71 175 1.0 7.0 0.00 0.00 0.00 79 1014.8
20260506182641 71 55 1.0 3.0 0.00 0.00 0.00 78 1014.9
20260506182441 71 115 1.0 3.0 0.00 0.00 0.00 78 1014.9
20260506182238 71 106 1.0 3.0 0.00 0.00 0.00 79 1015.0
20260506181836 71 106 1.0 3.0 0.00 0.00 0.00 79 1015.0
20260506181638 71 118 1.0 3.0 0.00 0.00 0.00 79 1014.9
20260506181435 71 143 1.0 3.0 0.00 0.00 0.00 79 1014.8
20260506181236 71 148 2.0 4.0 0.00 0.00 0.00 78 1014.9
20260506180431 71 44 1.0 4.0 0.00 0.00 0.00 80 1014.9
20260506180233 71 14 1.0 4.0 0.00 0.00 0.00 80 1014.8
20260506180031 71 12 1.0 4.0 0.00 0.00 0.00 80 1014.8
20260506175827 71 348 1.0 4.0 0.00 0.00 0.00 80 1014.8
20260506175625 71 355 1.0 4.0 0.00 0.00 0.00 80 1014.9
20260506175425 71 355 1.0 4.0 0.00 0.00 0.00 80 1014.9
20260506175223 70 113 1.0 4.0 0.00 0.00 0.00 80 1014.8
20260506175021 70 113 1.0 4.0 0.00 0.00 0.00 80 1014.9
20260506174820 70 196 1.0 4.0 0.00 0.00 0.00 79 1014.9
20260506174618 70 128 1.0 4.0 0.00 0.00 0.00 80 1015.0
20260506174417 70 148 1.0 3.0 0.00 0.00 0.00 80 1014.8
20260506174216 70 38 1.0 3.0 0.00 0.00 0.00 80 1014.8
20260506174014 70 38 0.0 2.0 0.00 0.00 0.00 81 1014.8
20260506173812 69 34 0.0 2.0 0.00 0.00 0.00 82 1014.8
20260506173613 69 34 0.0 2.0 0.00 0.00 0.00 81 1014.8
20260506173414 69 34 1.0 3.0 0.00 0.00 0.00 81 1014.8
20260506173211 69 34 1.0 3.0 0.00 0.00 0.00 81 1014.9
20260506173010 69 34 1.0 5.0 0.00 0.00 0.00 81 1014.8
20260506172809 69 34 2.0 5.0 0.00 0.00 0.00 81 1014.8
20260506172609 69 34 2.0 5.0 0.00 0.00 0.00 81 1014.8
20260506172405 69 130 1.0 5.0 0.00 0.00 0.00 81 1014.8
20260506172004 69 84 1.0 5.0 0.00 0.00 0.00 82 1014.8
20260506171800 69 75 1.0 3.0 0.00 0.00 0.00 82 1014.9
20260506171603 69 74 0.0 3.0 0.00 0.00 0.00 82 1015.0
20260506171358 69 84 0.0 2.0 0.00 0.00 0.00 82 1015.0
20260506171159 69 82 0.0 2.0 0.00 0.00 0.00 83 1014.9
20260506170758 69 112 0.0 2.0 0.00 0.00 0.00 82 1014.9
20260506170557 68 112 0.0 3.0 0.00 0.00 0.00 83 1015.0
20260506170355 68 112 1.0 3.0 0.00 0.00 0.00 83 1015.1
20260506170152 68 112 1.0 3.0 0.00 0.00 0.00 83 1015.1
20260506165951 68 111 1.0 3.0 0.00 0.00 0.00 83 1015.2
20260506165748 68 111 1.0 5.0 0.00 0.00 0.00 82 1015.1
20260506165550 68 121 1.0 5.0 0.00 0.00 0.00 82 1015.1
20260506165351 68 126 1.0 5.0 0.00 0.00 0.00 83 1015.2
20260506165149 68 101 1.0 5.0 0.00 0.00 0.00 83 1015.2
20260506164547 68 63 1.0 2.0 0.00 0.00 0.00 82 1015.3
20260506164346 68 60 0.0 2.0 0.00 0.00 0.00 82 1015.3
20260506164145 68 60 1.0 2.0 0.00 0.00 0.00 83 1015.3
20260506163944 68 49 0.0 2.0 0.00 0.00 0.00 82 1015.4
20260506163744 68 0 0.0 2.0 0.00 0.00 0.00 82 1015.3
20260506163542 68 98 1.0 2.0 0.00 0.00 0.00 82 1015.3
20260506163338 68 98 1.0 3.0 0.00 0.00 0.00 82 1015.3
20260506163138 68 108 1.0 3.0 0.00 0.00 0.00 83 1015.3
20260506162940 68 108 1.0 3.0 0.00 0.00 0.00 81 1015.2
20260506162741 68 108 1.0 3.0 0.00 0.00 0.00 81 1015.2
20260506162540 68 105 1.0 3.0 0.00 0.00 0.00 81 1015.1
20260506162338 68 105 1.0 2.0 0.00 0.00 0.00 81 1015.2
20260506162138 68 105 1.0 3.0 0.00 0.00 0.00 81 1015.1
20260506161936 68 105 1.0 5.0 0.00 0.00 0.00 81 1015.1
20260506161734 68 142 1.0 5.0 0.00 0.00 0.00 81 1015.1
20260506161534 68 142 1.0 5.0 0.00 0.00 0.00 81 1015.1
20260506161337 68 142 1.0 5.0 0.00 0.00 0.00 81 1015.2
20260506161132 68 88 1.0 5.0 0.00 0.00 0.00 80 1015.2
20260506160930 68 99 1.0 3.0 0.00 0.00 0.00 80 1015.3
20260506160732 68 119 1.0 3.0 0.00 0.00 0.00 80 1015.3
20260506160531 68 34 1.0 3.0 0.00 0.00 0.00 80 1015.3
20260506160331 68 310 1.0 3.0 0.00 0.00 0.00 80 1015.3
20260506160130 68 108 0.0 2.0 0.00 0.00 0.00 80 1015.3
20260506155728 68 108 1.0 3.0 0.00 0.00 0.00 80 1015.3
20260506155528 68 107 1.0 3.0 0.00 0.00 0.00 80 1015.4
20260506155324 68 107 1.0 3.0 0.00 0.00 0.00 80 1015.4
20260506154924 68 107 1.0 3.0 0.00 0.00 0.00 80 1015.5
20260506154723 67 111 1.0 3.0 0.00 0.00 0.00 80 1015.4
20260506154522 67 106 1.0 3.0 0.00 0.00 0.00 80 1015.4
20260506154323 67 80 0.0 3.0 0.00 0.00 0.00 80 1015.4
20260506154123 67 79 1.0 3.0 0.00 0.00 0.00 80 1015.4
20260506153923 67 111 1.0 3.0 0.00 0.00 0.00 79 1015.4
20260506153724 67 111 1.0 3.0 0.00 0.00 0.00 80 1015.3
20260506153524 67 117 1.0 3.0 0.00 0.00 0.00 80 1015.3
20260506153322 67 117 1.0 3.0 0.00 0.00 0.00 80 1015.3
20260506153121 67 190 1.0 3.0 0.00 0.00 0.00 80 1015.3
20260506152920 67 96 0.0 3.0 0.00 0.00 0.00 80 1015.2
20260506152719 67 96 1.0 4.0 0.00 0.00 0.00 80 1015.2
20260506152518 67 96 1.0 4.0 0.00 0.00 0.00 80 1015.3
20260506152319 67 65 0.0 4.0 0.00 0.00 0.00 80 1015.3
20260506152118 67 65 0.0 4.0 0.00 0.00 0.00 80 1015.3
20260506151918 67 65 0.0 4.0 0.00 0.00 0.00 80 1015.3
20260506151718 67 82 0.0 2.0 0.00 0.00 0.00 80 1015.4
20260506151517 67 82 0.0 2.0 0.00 0.00 0.00 80 1015.4
20260506150916 67 82 0.0 3.0 0.00 0.00 0.00 80 1015.3
20260506150714 67 82 0.0 3.0 0.00 0.00 0.00 80 1015.2
20260506150516 67 82 0.0 3.0 0.00 0.00 0.00 79 1015.2
20260506150116 67 82 0.0 3.0 0.00 0.00 0.00 79 1015.1
20260506145916 67 82 0.0 3.0 0.00 0.00 0.00 79 1015.1
20260506145713 67 82 1.0 3.0 0.00 0.00 0.00 79 1015.1
20260506145513 67 82 1.0 3.0 0.00 0.00 0.00 79 1015.1
20260506145313 67 82 1.0 3.0 0.00 0.00 0.00 78 1015.0
20260506145113 67 72 1.0 3.0 0.00 0.00 0.00 78 1014.9
20260506144915 67 72 1.0 3.0 0.00 0.00 0.00 79 1015.0
20260506144714 67 62 1.0 3.0 0.00 0.00 0.00 79 1015.1
20260506144511 67 62 1.0 3.0 0.00 0.00 0.00 79 1015.1
20260506144311 67 48 1.0 3.0 0.00 0.00 0.00 79 1015.1
20260506144110 67 77 1.0 3.0 0.00 0.00 0.00 79 1015.1
20260506143910 67 76 1.0 3.0 0.00 0.00 0.00 79 1015.1
20260506143710 67 56 1.0 3.0 0.00 0.00 0.00 79 1015.0
20260506143513 67 67 1.0 2.0 0.00 0.00 0.00 78 1014.8
20260506143312 67 66 1.0 2.0 0.00 0.00 0.00 78 1014.7
20260506142911 67 114 0.0 3.0 0.00 0.00 0.00 79 1014.7
20260506142709 67 114 1.0 3.0 0.00 0.00 0.00 79 1014.6
20260506142509 67 114 1.0 3.0 0.00 0.00 0.00 79 1014.6
20260506142309 66 113 1.0 3.0 0.00 0.00 0.00 79 1014.6
20260506142110 66 34 0.0 3.0 0.00 0.00 0.00 79 1014.6
20260506141908 66 98 0.0 3.0 0.00 0.00 0.00 79 1014.6
20260506141707 66 86 0.0 2.0 0.00 0.00 0.00 80 1014.6
20260506141507 66 86 0.0 2.0 0.00 0.00 0.00 80 1014.7
20260506141307 66 85 0.0 2.0 0.00 0.00 0.00 79 1014.7
20260506141107 66 85 0.0 2.0 0.00 0.00 0.00 79 1014.7
20260506140707 66 85 0.0 2.0 0.00 0.00 0.00 79 1014.8
20260506140507 66 84 0.0 2.0 0.00 0.00 0.00 79 1014.9
20260506140106 65 85 0.0 2.0 0.00 0.00 0.00 79 1014.9
20260506135907 65 93 0.0 2.0 0.00 0.00 0.00 80 1014.9
20260506135707 65 93 0.0 2.0 0.00 0.00 0.00 79 1014.9
20260506135506 65 93 1.0 2.0 0.00 0.00 0.00 80 1014.9
20260506135307 65 93 1.0 4.0 0.00 0.00 0.00 80 1014.9
20260506135106 65 93 1.0 4.0 0.00 0.00 0.00 80 1014.9
20260506134708 65 93 1.0 4.0 0.00 0.00 0.00 79 1014.9
20260506134508 65 57 1.0 4.0 0.00 0.00 0.00 79 1014.9
20260506134307 65 97 1.0 3.0 0.00 0.00 0.00 79 1015.1
20260506133908 65 84 1.0 3.0 0.00 0.00 0.00 80 1015.1
20260506133707 65 84 0.0 3.0 0.00 0.00 0.00 80 1015.1
20260506133307 65 80 1.0 4.0 0.00 0.00 0.00 80 1015.2
20260506132908 65 65 1.0 4.0 0.00 0.00 0.00 80 1015.2
20260506132706 65 65 1.0 4.0 0.00 0.00 0.00 80 1015.2
20260506132506 65 101 1.0 4.0 0.00 0.00 0.00 80 1015.2
20260506132308 65 98 1.0 4.0 0.00 0.00 0.00 80 1015.2
20260506131906 65 88 1.0 4.0 0.00 0.00 0.00 80 1015.4
20260506131507 65 88 1.0 4.0 0.00 0.00 0.00 79 1015.4
20260506131306 65 88 1.0 4.0 0.00 0.00 0.00 80 1015.4
20260506131107 65 59 1.0 4.0 0.00 0.00 0.00 80 1015.5
20260506130909 65 28 1.0 7.0 0.00 0.00 0.00 80 1015.5
20260506130706 65 29 1.0 7.0 0.00 0.00 0.00 80 1015.5
20260506130507 65 63 1.0 7.0 0.00 0.00 0.00 80 1015.5
20260506130307 65 61 1.0 7.0 0.00 0.00 0.00 80 1015.6
20260506130108 65 274 1.0 7.0 0.00 0.00 0.00 80 1015.6
20260506125909 65 107 1.0 5.0 0.00 0.00 0.00 80 1015.6
20260506125708 65 47 1.0 5.0 0.00 0.00 0.00 80 1015.7
20260506125306 65 134 1.0 5.0 0.00 0.00 0.00 80 1015.5
20260506125108 65 320 1.0 5.0 0.00 0.00 0.00 80 1015.4
20260506124908 65 63 1.0 5.0 0.00 0.00 0.00 80 1015.4
20260506124707 65 61 1.0 5.0 0.00 0.00 0.00 80 1015.3
20260506124306 65 155 1.0 5.0 0.00 0.00 0.00 80 1015.3
20260506124107 65 65 1.0 5.0 0.00 0.00 0.00 80 1015.2
20260506123907 65 65 1.0 5.0 0.00 0.00 0.00 80 1015.2
20260506123508 65 78 1.0 5.0 0.00 0.00 0.00 81 1015.1
20260506123308 65 69 1.0 5.0 0.00 0.00 0.00 80 1015.1
20260506123104 65 311 1.0 2.0 0.00 0.00 0.00 80 1015.0
20260506122906 65 323 0.0 2.0 0.00 0.00 0.00 80 1015.0
20260506122703 65 324 0.0 2.0 0.00 0.00 0.00 80 1015.0
20260506122504 65 321 0.0 2.0 0.00 0.00 0.00 80 1014.9
20260506122305 65 5 0.0 4.0 0.00 0.00 0.00 80 1014.9
20260506121659 65 300 1.0 4.0 0.00 0.00 0.00 80 1014.9
20260506121458 64 285 1.0 4.0 0.00 0.00 0.00 80 1014.9
20260506121300 65 57 1.0 4.0 0.00 0.00 0.00 80 1014.9
20260506120859 64 36 1.0 4.0 0.00 0.00 0.00 80 1014.9
20260506120659 64 230 0.0 3.0 0.00 0.00 0.00 80 1014.9
20260506120457 64 230 0.0 3.0 0.00 0.00 0.00 81 1014.8
20260506120258 64 103 0.0 2.0 0.00 0.00 0.00 81 1014.8
20260506120056 64 103 1.0 2.0 0.00 0.00 0.00 81 1014.8
20260506115255 64 91 1.0 3.0 0.00 0.00 0.00 81 1014.8
20260506115056 64 91 1.0 3.0 0.00 0.00 0.00 81 1014.7
20260506114852 64 95 1.0 4.0 0.00 0.00 0.00 81 1014.7
20260506114649 64 95 1.0 4.0 0.00 0.00 0.00 81 1014.5
20260506114447 64 111 1.0 4.0 0.00 0.00 0.00 81 1014.5
20260506114247 64 111 1.0 4.0 0.00 0.00 0.00 81 1014.5
20260506114049 64 134 1.0 4.0 0.00 0.00 0.00 81 1014.5
20260506113647 64 113 0.0 2.0 0.00 0.00 0.00 81 1014.7
20260506113447 64 88 0.0 2.0 0.00 0.00 0.00 81 1014.6
20260506113248 64 84 0.0 1.0 0.00 0.00 0.00 81 1014.6
20260506113048 64 84 0.0 1.0 0.00 0.00 0.00 81 1014.5
20260506112846 64 84 0.0 1.0 0.00 0.00 0.00 81 1014.5
20260506112445 64 84 0.0 1.0 0.00 0.00 0.00 81 1014.6
20260506112246 64 85 0.0 1.0 0.00 0.00 0.00 81 1014.5
20260506112045 64 86 0.0 2.0 0.00 0.00 0.00 80 1014.6
20260506111843 64 84 0.0 2.0 0.00 0.00 0.00 81 1014.5
20260506111439 64 80 0.0 2.0 0.00 0.00 0.00 81 1014.6
20260506111036 64 79 1.0 3.0 0.00 0.00 0.00 81 1014.8
20260506110433 63 79 1.0 3.0 0.00 0.00 0.00 80 1014.6
20260506110031 63 49 0.0 3.0 0.00 0.00 0.00 80 1014.6
20260506105626 63 74 1.0 3.0 0.00 0.00 0.00 81 1014.4
20260506105425 63 84 1.0 3.0 0.00 0.00 0.00 80 1014.3
20260506105225 63 85 1.0 5.0 0.00 0.00 0.00 80 1014.3
20260506105024 63 84 1.0 5.0 0.00 0.00 0.00 80 1014.4
20260506104825 63 73 1.0 5.0 0.00 0.00 0.00 80 1014.4
20260506104624 63 115 1.0 5.0 0.00 0.00 0.00 80 1014.4
20260506104424 63 115 1.0 5.0 0.00 0.00 0.00 80 1014.4
20260506104224 63 76 1.0 4.0 0.00 0.00 0.00 80 1014.4
20260506104027 63 54 0.0 4.0 0.00 0.00 0.00 80 1014.4
20260506103824 63 51 0.0 4.0 0.00 0.00 0.00 80 1014.3
20260506103623 63 64 0.0 4.0 0.00 0.00 0.00 80 1014.3
20260506103421 63 109 0.0 3.0 0.00 0.00 0.00 80 1014.2
20260506103219 63 109 1.0 3.0 0.00 0.00 0.00 80 1014.3
20260506103018 63 109 1.0 3.0 0.00 0.00 0.00 80 1014.3
20260506102816 63 109 1.0 3.0 0.00 0.00 0.00 80 1014.3
20260506102619 63 108 1.0 2.0 0.00 0.00 0.00 80 1014.3
20260506102217 63 109 1.0 2.0 0.00 0.00 0.00 80 1014.3
20260506102017 63 82 1.0 2.0 0.00 0.00 0.00 80 1014.3
20260506101812 63 82 1.0 2.0 0.00 0.00 0.00 80 1014.3
20260506101613 63 81 0.0 3.0 0.00 0.00 0.00 80 1014.3
20260506101212 63 71 0.0 3.0 0.00 0.00 0.00 80 1014.2
20260506101014 63 105 1.0 3.0 0.00 0.00 0.00 80 1014.2
20260506100814 63 105 1.0 3.0 0.00 0.00 0.00 80 1014.1
20260506100611 63 105 1.0 3.0 0.00 0.00 0.00 80 1014.2
20260506100412 63 107 1.0 3.0 0.00 0.00 0.00 80 1014.3
20260506095807 63 76 1.0 3.0 0.00 0.00 0.00 80 1014.5
20260506095608 63 46 1.0 3.0 0.00 0.00 0.00 80 1014.5
20260506095407 63 0 1.0 3.0 0.00 0.00 0.00 80 1014.6
20260506095205 63 355 1.0 3.0 0.00 0.00 0.00 80 1014.6
20260506094806 64 80 1.0 3.0 0.00 0.00 0.00 80 1014.6
20260506094605 64 78 1.0 3.0 0.00 0.00 0.00 80 1014.5
20260506094406 64 78 1.0 3.0 0.00 0.00 0.00 80 1014.5
20260506094203 64 107 1.0 3.0 0.00 0.00 0.00 80 1014.5
20260506094002 64 133 0.0 3.0 0.00 0.00 0.00 80 1014.6
20260506093803 64 49 1.0 3.0 0.00 0.00 0.00 80 1014.7
20260506093600 64 95 1.0 5.0 0.00 0.00 0.00 80 1014.7
20260506093402 64 65 1.0 5.0 0.00 0.00 0.00 80 1014.6
20260506093200 64 65 1.0 5.0 0.00 0.00 0.00 80 1014.7
20260506092958 64 121 1.0 5.0 0.00 0.00 0.00 80 1014.6
20260506092759 64 86 0.0 5.0 0.00 0.00 0.00 80 1014.6
20260506092600 64 80 1.0 5.0 0.00 0.00 0.00 80 1014.7
20260506092358 64 80 1.0 5.0 0.00 0.00 0.00 80 1014.7
20260506092156 64 80 1.0 5.0 0.00 0.00 0.00 80 1014.8
20260506091957 64 80 1.0 5.0 0.00 0.00 0.00 80 1014.8
20260506091757 64 80 1.0 5.0 0.00 0.00 0.00 80 1014.8
20260506091555 64 142 1.0 2.0 0.00 0.00 0.00 80 1014.8
20260506091357 64 142 1.0 2.0 0.00 0.00 0.00 80 1014.9
20260506091156 64 142 1.0 3.0 0.00 0.00 0.00 80 1014.9
20260506090954 64 142 1.0 3.0 0.00 0.00 0.00 80 1014.9
20260506090752 64 142 1.0 3.0 0.00 0.00 0.00 80 1014.9
20260506090550 64 142 1.0 4.0 0.00 0.00 0.00 80 1014.9
20260506090148 64 68 1.0 4.0 0.00 0.00 0.00 80 1014.9
20260506085949 64 117 1.0 4.0 0.00 0.00 0.00 80 1015.0
20260506085749 64 33 1.0 7.0 0.00 0.00 0.00 80 1014.9
20260506085548 64 137 1.0 7.0 0.00 0.00 0.00 80 1015.0
20260506085348 64 116 1.0 7.0 0.00 0.00 0.00 80 1015.1
20260506085147 64 99 1.0 7.0 0.00 0.00 0.00 80 1015.2
20260506084948 64 102 1.0 7.0 0.00 0.00 0.00 80 1015.1
20260506084546 64 127 0.0 2.0 0.00 0.00 0.00 80 1015.1
20260506084348 64 128 0.0 2.0 0.00 0.00 0.00 80 1015.2
20260506084146 64 128 0.0 2.0 0.00 0.00 0.00 80 1015.1
20260506083946 64 48 0.0 2.0 0.00 0.00 0.00 80 1015.0
20260506083743 64 46 0.0 2.0 0.00 0.00 0.00 80 1014.9
20260506083542 64 44 0.0 2.0 0.00 0.00 0.00 80 1015.1
20260506083138 64 44 0.0 3.0 0.00 0.00 0.00 80 1015.0
20260506082940 64 44 0.0 3.0 0.00 0.00 0.00 80 1014.9
20260506082539 64 41 1.0 4.0 0.00 0.00 0.00 80 1014.9
20260506082338 64 41 1.0 4.0 0.00 0.00 0.00 80 1014.9
20260506082139 64 98 1.0 4.0 0.00 0.00 0.00 80 1014.9
20260506081938 64 111 1.0 4.0 0.00 0.00 0.00 80 1014.9
20260506081534 64 65 1.0 3.0 0.00 0.00 0.00 80 1014.9
20260506081334 64 65 0.0 3.0 0.00 0.00 0.00 80 1014.9
20260506081134 64 65 0.0 3.0 0.00 0.00 0.00 80 1014.9
20260506080934 64 64 1.0 3.0 0.00 0.00 0.00 80 1015.0
20260506080734 64 316 1.0 6.0 0.00 0.00 0.00 80 1015.0
20260506080535 64 34 1.0 6.0 0.00 0.00 0.00 80 1014.9
20260506080333 64 34 1.0 6.0 0.00 0.00 0.00 80 1014.9
20260506080132 64 33 1.0 6.0 0.00 0.00 0.00 80 1014.9
20260506073523 64 71 1.0 5.0 0.00 0.00 0.00 79 1014.9
20260506073123 64 70 1.0 5.0 0.00 0.00 0.00 79 1015.0
20260506072920 64 332 1.0 5.0 0.00 0.00 0.00 79 1015.0
20260506072719 64 117 0.0 5.0 0.00 0.00 0.00 79 1015.1
20260506072516 64 117 1.0 5.0 0.00 0.00 0.00 79 1015.0
20260506072315 64 124 1.0 5.0 0.00 0.00 0.00 79 1014.9
20260506072116 64 132 1.0 5.0 0.00 0.00 0.00 79 1015.0
20260506071916 64 135 1.0 5.0 0.00 0.00 0.00 79 1015.0
20260506071716 64 134 0.0 5.0 0.00 0.00 0.00 79 1015.0
20260506071516 64 158 0.0 3.0 0.00 0.00 0.00 79 1015.1
20260506071112 64 46 0.0 7.0 0.00 0.00 0.00 79 1015.2
20260506070910 64 46 1.0 7.0 0.00 0.00 0.00 79 1015.2
20260506070711 64 46 1.0 7.0 0.00 0.00 0.00 79 1015.2
20260506070510 64 46 0.0 7.0 0.00 0.00 0.00 79 1015.2
20260506070310 64 71 0.0 3.0 0.00 0.00 0.00 79 1015.2
20260506070109 64 121 1.0 3.0 0.00 0.00 0.00 79 1015.2
20260506062450 65 68 0.0 4.0 0.00 0.00 0.00 78 1015.3
20260506062250 65 67 0.0 4.0 0.00 0.00 0.00 78 1015.4
20260506062048 65 66 1.0 4.0 0.00 0.00 0.00 78 1015.3
20260506061847 65 61 1.0 4.0 0.00 0.00 0.00 78 1015.3
20260506061644 65 60 1.0 4.0 0.00 0.00 0.00 78 1015.3
20260506061442 65 36 1.0 4.0 0.00 0.00 0.00 78 1015.4
20260506061242 65 34 1.0 4.0 0.00 0.00 0.00 78 1015.5
20260506061042 65 34 1.0 4.0 0.00 0.00 0.00 78 1015.5
20260506060842 65 34 1.0 4.0 0.00 0.00 0.00 78 1015.5
20260506060643 65 30 1.0 4.0 0.00 0.00 0.00 78 1015.5
20260506060242 65 100 1.0 3.0 0.00 0.00 0.00 78 1015.6